This is the latest recevied weather packets stored in our database for station/object KLEMETTI. If no packets are shown the sender has not sent any weather packets the latest 10 day(s).
| Time | Temp. | Humidity | Pressure | Rain* | Wind** | Luminosity | Snow |
|---|---|---|---|---|---|---|---|
| 1777759631 | 8.33° C | 78% | 1006.9 hPa | 0.25 mm | - | - | - |
| 1777758430 | 8.33° C | 80% | 1006.7 hPa | 0 mm | - | - | - |
| 1777757230 | 7.78° C | 84% | 1006.5 hPa | 0 mm | - | - | - |
| 1777756030 | 8.33° C | 77% | 1006.4 hPa | 0 mm | - | - | - |
| 1777754831 | 8.33° C | 73% | 1006.2 hPa | 0 mm | - | - | - |
| 1777753629 | 8.89° C | 67% | 1006.1 hPa | 0 mm | - | - | - |
| 1777752430 | 9.44° C | 66% | 1006 hPa | 0 mm | - | - | - |
| 1777751229 | 9.44° C | 62% | 1005.9 hPa | 0 mm | - | - | - |
| 1777750030 | 10° C | 61% | 1006.1 hPa | 0 mm | - | - | - |
| 1777748829 | 10° C | 62% | 1006 hPa | 0 mm | - | - | - |
| 1777747629 | 10° C | 60% | 1006.2 hPa | 0 mm | - | - | - |
| 1777746429 | 10° C | 60% | 1006.1 hPa | 0 mm | - | - | - |
| 1777745229 | 10° C | 60% | 1006 hPa | 0 mm | - | - | - |
| 1777744029 | 10.56° C | 58% | 1006.1 hPa | 0 mm | - | - | - |
| 1777742829 | 10.56° C | 57% | 1006 hPa | 0 mm | - | - | - |
| 1777741628 | 10.56° C | 56% | 1006.1 hPa | 0 mm | - | - | - |
| 1777740429 | 10.56° C | 57% | 1006.1 hPa | 0 mm | - | - | - |
| 1777739228 | 11.11° C | 56% | 1006.1 hPa | 0 mm | - | - | - |
| 1777738029 | 11.67° C | 54% | 1006.2 hPa | 0 mm | - | - | - |
| 1777736829 | 11.67° C | 52% | 1006.3 hPa | 0 mm | - | - | - |
| 1777735628 | 12.22° C | 52% | 1006.3 hPa | 0 mm | - | - | - |
| 1777734429 | 12.78° C | 52% | 1006.4 hPa | 0 mm | - | - | - |
| 1777733228 | 12.78° C | 50% | 1006.3 hPa | 0 mm | - | - | - |
| 1777732028 | 13.33° C | 49% | 1006.4 hPa | 0 mm | - | - | - |
| 1777729628 | 13.89° C | 49% | 1006.6 hPa | 0 mm | - | - | - |
* Rain latest hour (hover to see other rain measurements)
** Current wind speed in m/s (hover to see current wind gust speed)